Cancun, Mexico

3:30 AM on April 30, 2017 (GMT +0000)
Cancun International

Weather History for MMUN - August, 2013

Change the Weather History Date:

Friday, August 2, 2013

  Actual Average Record
Temperature  
Mean Temperature 81 °F -  
Max Temperature 89 °F 89 °F 98 °F (2004)
Min Temperature 73 °F 73 °F 71 °F (2001)
Cooling Degree Days 16    
Growing Degree Days 31 (Base 50)    
Moisture  
Dew Point 74 °F    
Average Humidity 78    
Maximum Humidity 100    
Minimum Humidity 55    
Precipitation  
Precipitation 0.00 in - - ()
Sea Level Pressure  
Sea Level Pressure 29.98 in    
Wind  
Wind Speed 4 mph ()    
Max Wind Speed 14 mph    
Max Gust Speed -    
Visibility 7.0 miles    
Events      
Averages and records for this station are not official NWS values.
T = Trace of Precipitation, MM = Missing Value Source: Averaged Metar Reports

Daily Weather History Graph

Daily Weather History Graph

Search for Another Location

Airport or City:

Trip Planner

Search our weather history database for the weather conditions in past years. The results will help you decide how hot, cold, wet, or windy it might be!

Date:

Astronomy

Aug. 02, 2013 Rise Set
Actual Time 6:21 AM CDT 7:25 PM CDT
Civil Twilight 5:58 AM CDT 7:48 PM CDT
Nautical Twilight 5:30 AM CDT 8:16 PM CDT
Astronomical Twilight 5:01 AM CDT 8:45 PM CDT
Moon 2:47 AM CDT (8/2) 4:17 PM CDT (8/2)
Length of Visible Light 13h 50m
Length of Day
13h 03m
Waning Crescent, 15% of the Moon is Illuminated
Aug 2
Waning Crescent
Aug 6
New
Aug 14
First Quarter
Aug 20
Full
Aug 28
Last Quarter

Hourly Weather History & Observations

Time (CDT) Temp. Heat Index Dew Point Humidity Pressure Visibility Wind Dir Wind Speed Gust Speed Precip Events Conditions
12:45 AM 77.0 °F - 77.0 °F 100% 29.94 in 7.0 mi Calm Calm - N/A   Scattered Clouds
1:44 AM 77.0 °F - 75.2 °F 94% 29.94 in 7.0 mi Calm Calm - N/A   Partly Cloudy
2:43 AM 77.0 °F - 73.4 °F 89% 29.93 in 7.0 mi Calm Calm - N/A   Clear
3:46 AM 75.2 °F - 73.4 °F 94% 29.91 in 7.0 mi Calm Calm - N/A   Clear
4:45 AM 75.2 °F - 73.4 °F 94% 29.92 in 7.0 mi Calm Calm - N/A   Clear
5:44 AM 73.4 °F - 73.4 °F 100% 29.93 in 7.0 mi Calm Calm - N/A   Partly Cloudy
6:43 AM 73.4 °F - 71.6 °F 94% 29.94 in 7.0 mi Calm Calm - N/A   Scattered Clouds
7:42 AM 75.2 °F - 75.2 °F 100% 29.96 in 7.0 mi Calm Calm - N/A   Scattered Clouds
8:44 AM 84.2 °F 94.1 °F 77.0 °F 79% 29.98 in 7.0 mi SW 3.5 mph - N/A   Scattered Clouds
9:45 AM 84.2 °F 90.9 °F 73.4 °F 70% 29.99 in 7.0 mi South 6.9 mph - N/A   Mostly Cloudy
10:44 AM 87.8 °F 95.6 °F 73.4 °F 62% 30.01 in 7.0 mi SSE 8.1 mph - N/A   Scattered Clouds
11:42 AM 87.8 °F 95.6 °F 73.4 °F 62% 30.01 in 7.0 mi SSE 13.8 mph - N/A   Scattered Clouds
12:46 PM 89.6 °F 98.2 °F 73.4 °F 59% 30.00 in 7.0 mi SE 3.5 mph - N/A   Scattered Clouds
1:45 PM 89.6 °F 96.2 °F 71.6 °F 55% 29.98 in 7.0 mi SSE 13.8 mph - N/A   Scattered Clouds
2:46 PM 87.8 °F 95.6 °F 73.4 °F 62% 29.98 in 7.0 mi SE 13.8 mph - N/A   Mostly Cloudy
3:43 PM 87.8 °F 95.6 °F 73.4 °F 62% 29.98 in 7.0 mi SE 11.5 mph - N/A   Mostly Cloudy
4:47 PM 84.2 °F 90.9 °F 73.4 °F 70% 29.98 in 7.0 mi NNW 5.8 mph - N/A   Mostly Cloudy
5:42 PM 86.0 °F 91.8 °F 71.6 °F 62% 29.98 in 7.0 mi North 5.8 mph - N/A   Mostly Cloudy
6:44 PM 84.2 °F 92.3 °F 75.2 °F 74% 29.99 in 7.0 mi ESE 8.1 mph - N/A   Mostly Cloudy
7:43 PM 82.4 °F 89.5 °F 75.2 °F 79% 30.01 in 7.0 mi ESE 5.8 mph - N/A   Mostly Cloudy
8:42 PM 82.4 °F 89.5 °F 75.2 °F 79% 30.02 in 7.0 mi ESE 6.9 mph - N/A   Scattered Clouds
9:44 PM 82.4 °F 89.5 °F 75.2 °F 79% 30.03 in 7.0 mi SSE 10.4 mph - N/A   Scattered Clouds
10:42 PM 82.4 °F 89.5 °F 75.2 °F 79% 30.05 in 7.0 mi SE 9.2 mph - N/A   Scattered Clouds
11:44 PM 82.4 °F 88.2 °F 73.4 °F 74% 30.05 in 7.0 mi SE 11.5 mph - N/A   Scattered Clouds